Skagway, AK

8:09 PM AKDT on April 26, 2017 (GMT -0800)
Skagway

Weather History for PAGY - March, 2014

Change the Weather History Date:

Wednesday, March 19, 2014

  Actual Average Record
Temperature  
Mean Temperature 38 °F -  
Max Temperature 44 °F 37 °F 53 °F (1998)
Min Temperature 33 °F 25 °F 7 °F (1969)
Degree Days  
Heating Degree Days 27    
Moisture  
Dew Point 28 °F    
Average Humidity 77    
Maximum Humidity 92    
Minimum Humidity 43    
Precipitation  
Precipitation 0.05 in - - ()
Sea Level Pressure  
Sea Level Pressure 29.91 in    
Wind  
Wind Speed 3 mph (NE)    
Max Wind Speed 12 mph    
Max Gust Speed -    
Visibility 8 miles    
Events Snow    
Averages and records for this station are not official NWS values.
T = Trace of Precipitation, MM = Missing Value Source: NWS Daily Summary

Daily Weather History Graph

Daily Weather History Graph

Search for Another Location

Airport or City:

Trip Planner

Search our weather history database for the weather conditions in past years. The results will help you decide how hot, cold, wet, or windy it might be!

Date:

Astronomy

Mar. 19, 2014 Rise Set
Actual Time 7:05 AM AKDT 7:13 PM AKDT
Civil Twilight 6:24 AM AKDT 7:54 PM AKDT
Nautical Twilight 5:35 AM AKDT 8:43 PM AKDT
Astronomical Twilight 4:43 AM AKDT 9:37 PM AKDT
Moon 11:34 PM AKDT (3/19) 7:50 AM AKDT (3/19)
Length of Visible Light 13h 30m
Length of Day
12h 08m
Waning Gibbous, 90% of the Moon is Illuminated
Mar 19
Waning Gibbous
Mar 23
Last Quarter
Mar 30
New
Apr 7
First Quarter
Apr 14
Full

Hourly Weather History & Observations

Time (AKDT) Temp. Windchill Dew Point Humidity Pressure Visibility Wind Dir Wind Speed Gust Speed Precip Events Conditions
12:53 AM 36.0 °F 31.1 °F 30.9 °F 82% 29.75 in 10.0 mi South 5.8 mph - N/A   Overcast
1:53 AM 35.1 °F 27.9 °F 30.9 °F 85% 29.76 in 10.0 mi SSW 9.2 mph - 0.00 in   Overcast
2:48 AM 35.6 °F - 32.0 °F 87% 29.79 in 5.0 mi Calm Calm - 0.00 in Snow Light Snow
2:53 AM 34.0 °F - 32.0 °F 92% 29.80 in 6.0 mi Calm Calm - 0.00 in Snow Light Snow
3:09 AM 34.0 °F - 32.0 °F 92% 29.80 in 5.0 mi Calm Calm - 0.01 in Snow Light Snow
3:25 AM 34.0 °F - 30.9 °F 89% 29.80 in 7.0 mi Calm Calm - 0.01 in   Overcast
3:53 AM 34.0 °F 31.0 °F 30.9 °F 89% 29.81 in 9.0 mi South 3.5 mph - 0.01 in Snow Light Snow
4:15 AM 34.0 °F - 30.9 °F 89% 29.81 in 4.0 mi Calm Calm - 0.01 in Snow Light Snow
4:53 AM 33.1 °F - 30.9 °F 92% 29.83 in 3.0 mi Calm Calm - 0.02 in Snow Light Snow
5:16 AM 33.1 °F - 30.9 °F 92% 29.84 in 2.5 mi Calm Calm - 0.00 in Snow Light Snow
5:32 AM 33.1 °F - 30.0 °F 89% 29.84 in 2.5 mi Calm Calm - 0.01 in Snow Light Snow
5:37 AM 33.1 °F - 30.0 °F 89% 29.84 in 3.0 mi Calm Calm - 0.01 in Snow Light Snow
5:46 AM 33.1 °F - 30.9 °F 92% 29.84 in 3.0 mi Calm Calm - 0.01 in Snow Light Snow
5:53 AM 33.1 °F - 30.9 °F 92% 29.85 in 4.0 mi Calm Calm - 0.01 in Snow Light Snow
6:10 AM 33.1 °F - 30.9 °F 92% 29.85 in 9.0 mi Calm Calm - 0.00 in   Overcast
6:53 AM 33.1 °F - 30.9 °F 92% 29.87 in 9.0 mi Calm Calm - 0.00 in Snow Light Snow
7:00 AM 33.1 °F - 30.9 °F 92% 29.86 in 4.0 mi Calm Calm - 0.00 in Snow Light Snow
7:17 AM 33.1 °F - 30.9 °F 92% 29.87 in 5.0 mi Calm Calm - 0.01 in Snow Light Snow
7:53 AM 33.1 °F 30.0 °F 30.9 °F 92% 29.88 in 10.0 mi NE 3.5 mph - 0.01 in   Overcast
8:10 AM 33.1 °F - 30.9 °F 92% 29.87 in 10.0 mi Calm Calm - N/A   Mostly Cloudy
8:53 AM 34.0 °F - 32.0 °F 92% 29.90 in 10.0 mi Calm Calm - N/A   Overcast
9:53 AM 35.1 °F - 33.1 °F 92% 29.91 in 10.0 mi Calm Calm - N/A   Scattered Clouds
10:53 AM 37.0 °F - 33.1 °F 86% 29.93 in 10.0 mi Calm Calm - N/A   Overcast
11:53 AM 37.0 °F 31.6 °F 32.0 °F 82% 29.95 in 10.0 mi SSW 6.9 mph - N/A   Overcast
12:53 PM 37.9 °F 32.1 °F 33.1 °F 83% 29.94 in 10.0 mi SSW 8.1 mph - N/A   Mostly Cloudy
1:53 PM 39.0 °F 32.3 °F 33.1 °F 79% 29.96 in 10.0 mi SSW 10.4 mph - N/A   Overcast
2:53 PM 39.9 °F 33.9 °F 30.0 °F 68% 29.98 in 10.0 mi SSW 9.2 mph - N/A   Overcast
3:53 PM 43.0 °F 36.8 °F 25.0 °F 49% 29.99 in 10.0 mi NE 11.5 mph - N/A   Overcast
4:53 PM 43.0 °F 37.7 °F 21.9 °F 43% 30.01 in 10.0 mi NE 9.2 mph - N/A   Overcast
5:53 PM 42.1 °F 36.6 °F 21.9 °F 45% 30.02 in 10.0 mi NNE 9.2 mph - N/A   Mostly Cloudy
6:53 PM 39.9 °F 35.1 °F 21.0 °F 47% 30.05 in 10.0 mi NNE 6.9 mph - N/A   Mostly Cloudy
7:53 PM 39.0 °F 32.3 °F 19.0 °F 45% 30.08 in 10.0 mi NNE 10.4 mph - N/A   Overcast
8:53 PM 39.0 °F 33.4 °F 18.0 °F 43% 30.11 in 10.0 mi NNE 8.1 mph - N/A   Overcast
9:53 PM 37.9 °F 32.7 °F 17.1 °F 43% 30.14 in 10.0 mi Variable 6.9 mph - N/A   Overcast
10:53 PM 37.9 °F 32.7 °F 17.1 °F 43% 30.16 in 10.0 mi North 6.9 mph - N/A   Overcast
11:53 PM 37.0 °F 31.6 °F 17.1 °F 44% 30.17 in 10.0 mi North 6.9 mph - N/A   Overcast